Location: Asheville, NC
(35.6000°N, 82.5500°W)
Time: 02:50:56
(UTC-05:00)

Tiangong 1 - Pass Details

Date: 13 February 2018
Orbit: 249 x 271 km, 42.8° (Epoch: 18 February)

Event Time Altitude Azimuth Distance (km) Brightness Sun altitude
Exits shadow 06:05:02 14° 2° (N) 865 2.8 -15.6°
Drops below altitude 10° 06:06:14 10° 34° (NNE) 1,043 3.6 -15.4°
Sets 06:08:42 0° 62° (ENE) 1,856 5.5 -14.9°
